TimePDT,TemperatureF,Dew PointF,Humidity,Sea Level PressureIn,VisibilityMPH,Wind Direction,Wind SpeedMPH,Gust SpeedMPH,PrecipitationIn,Events,Conditions,WindDirDegrees,DateUTC
12:53 AM,63.0,53.1,70,30.06,10.0,NNE,4.6,-,N/A,,Clear,30,2013-08-04 07:53:00
1:53 AM,60.1,53.1,78,30.05,10.0,Calm,Calm,-,N/A,,Clear,0,2013-08-04 08:53:00
2:53 AM,59.0,53.1,81,30.05,10.0,North,4.6,-,N/A,,Clear,350,2013-08-04 09:53:00
3:53 AM,57.9,53.1,84,30.05,10.0,NNW,5.8,-,N/A,,Clear,340,2013-08-04 10:53:00
4:53 AM,57.0,53.1,87,30.05,10.0,NNW,3.5,-,N/A,,Clear,330,2013-08-04 11:53:00
5:53 AM,57.9,53.1,84,30.06,10.0,Calm,Calm,-,N/A,,Clear,0,2013-08-04 12:53:00
6:53 AM,59.0,54.0,83,30.06,10.0,Calm,Calm,-,N/A,,Clear,0,2013-08-04 13:53:00
7:53 AM,61.0,54.0,78,30.06,10.0,NE,6.9,-,N/A,,Clear,40,2013-08-04 14:53:00
8:53 AM,64.0,54.0,70,30.06,10.0,North,4.6,-,N/A,,Clear,350,2013-08-04 15:53:00
9:53 AM,66.0,54.0,65,30.06,10.0,North,6.9,-,N/A,,Clear,10,2013-08-04 16:53:00
10:53 AM,70.0,55.9,61,30.05,10.0,North,6.9,-,N/A,,Clear,350,2013-08-04 17:53:00
11:53 AM,72.0,55.9,57,30.04,10.0,Variable,5.8,-,N/A,,Partly Cloudy,0,2013-08-04 18:53:00
12:53 PM,73.0,55.9,55,30.04,10.0,North,9.2,-,N/A,,Partly Cloudy,10,2013-08-04 19:53:00
1:53 PM,75.0,55.9,51,30.02,10.0,NNE,9.2,-,N/A,,Clear,30,2013-08-04 20:53:00
2:53 PM,75.9,55.9,50,30.00,10.0,NNE,8.1,-,N/A,,Scattered Clouds,30,2013-08-04 21:53:00
3:53 PM,77.0,55.9,48,29.98,10.0,North,10.4,-,N/A,,Scattered Clouds,10,2013-08-04 22:53:00
4:53 PM,79.0,55.0,44,29.97,10.0,North,10.4,-,N/A,,Clear,360,2013-08-04 23:53:00
5:53 PM,78.1,55.0,45,29.96,10.0,North,6.9,-,N/A,,Scattered Clouds,10,2013-08-05 00:53:00
6:53 PM,77.0,55.0,47,29.95,10.0,North,8.1,-,N/A,,Scattered Clouds,10,2013-08-05 01:53:00
7:53 PM,73.9,55.0,52,29.95,10.0,North,4.6,-,N/A,,Scattered Clouds,360,2013-08-05 02:53:00
8:53 PM,72.0,55.0,55,29.96,10.0,Calm,Calm,-,N/A,,Clear,0,2013-08-05 03:53:00
9:53 PM,70.0,54.0,57,29.98,10.0,NNW,5.8,-,N/A,,Clear,340,2013-08-05 04:53:00
10:53 PM,69.1,55.0,61,29.98,10.0,North,5.8,-,N/A,,Clear,360,2013-08-05 05:53:00
11:53 PM,66.0,55.0,68,29.99,10.0,North,8.1,-,N/A,,Clear,360,2013-08-05 06:53:00